Other Surface Observations
Issued by NWS

Home | Current Version | Previous Version | Text Only | Print | Product List | Glossary On
Versions: 1 2 3 4 5 6 7 8 9 10 11 12 13 14 15 16 17 18 19 20 21 22 23 24 25 26 27 28 29 30 31 32 33 34 35 36 37 38 39 40 41 42 43 44 45 46 47 48 49 50
000
SXUS52 KTAE 021618
OSOTAE
OSOTAE
North Florida/South Alabama/Southwest Georgia Weather Roundup
National Weather Service Tallahassee Florida
1100 AM EST MON MAR 02 2015

Note: "fair" indicates few or no clouds below 12,000 feet with no
significant weather and/or obstructions to visibility.

!FLZ017-115-028-034-025-021700
...North Florida...

CITY           SKY/WX    TMP DP  RH WIND       PRES   REMARKS
TALLAHASSEE    PTSUNNY   68  59  73 NW3       30.32S
APALACHICOLA   CLOUDY    63  58  83 S5        30.31S
PERRY          MOSUNNY   75  65  71 S5        30.31S
CROSS CITY       N/A     74  65  73 VRB5      30.31S
JACKSONVILLE   PTSUNNY   67  64  90 CALM      30.31F
$$

!FLZ112-006-005-002-011-021700
...Florida Panhandle...

CITY           SKY/WX    TMP DP  RH WIND       PRES   REMARKS
MARIANNA       CLOUDY    55  55 100 N3        30.34S FOG
BONIFAY        NOT AVBL
PANAMA CITY NW CLOUDY    64  59  83 NW3       30.32S
TYNDALL AFB    PTSUNNY   66  61  85 VRB2      30.32S
TYND DRONE APT FAIR      66  63  88 W3        30.31S
DE FUNIAK SPR  CLOUDY    58  56  91 CALM      30.34S
EGLIN AFB      CLOUDY    63  59  85 E2        30.32S FOG
DESTIN         FOG       60  58  92 N6        30.33R VSB 3/4
HURLBURT       LGT RAIN  65  58  78 E5        30.31S
CRESTVIEW      CLOUDY    62  57  83 VRB3      30.34S
PENSACOLA      CLOUDY    62  60  93 E6        30.31S FOG
$$

!ALZ063-066-021700
...South Alabama...

CITY           SKY/WX    TMP DP  RH WIND       PRES   REMARKS
DOTHAN         CLOUDY    56  55  97 CALM      30.38S FOG
OZARK CAIRNS   CLOUDY    57  55  93 VRB3      30.34S FOG
FT RUCKER HELI CLOUDY    57  55  93 CALM      30.34S FOG
RUCKER HELI 3  PTSUNNY   57  57 100 E2        30.35S FOG
RUCKER HELI 2  NOT AVBL
FLORALA APT    NOT AVBL
ANDALUSIA      CLOUDY    61  55  82 SE3       30.34S HAZE
TROY           CLOUDY    57  54  89 NE3       30.35S FOG
EUFALA         NOT AVBL
MOBILE         FOG       58  58 100 E5        30.32S VSB 1/4
$$

!GAZ120>161-021700
...Southwest and South Central Georgia...

CITY           SKY/WX    TMP DP  RH WIND       PRES   REMARKS
THOMASVILLE    CLOUDY    59  59 100 N6        30.35S FOG
BAINBRIDGE     FOG       59  59 100 NE3       30.35F VSB 3/4
MOODY AFB      CLOUDY    57  56  97 N7        30.33S FOG
VALDOSTA       CLOUDY    58  57  97 N8        30.34R FOG
MOULTRIE       CLOUDY    55  55 100 CALM      30.35S FOG
BLAKELY        CLOUDY    57  57 100 N3        30.36S FOG
ALBANY         CLOUDY    57  54  88 CALM      30.37S HAZE
TIFTON         CLOUDY    55  55 100 CALM      30.34F FOG
FITZGERALD     CLOUDY    56  53  91 CALM      30.37S
CORDELE        CLOUDY    56  53  88 W3        30.36S
AMERICUS       CLOUDY    54  54 100 W3        30.36S
HOMERVILLE     FOG       59  59 100 NW3       30.34S VSB 1/4
$$

!GMZ750-755-770-775-021700
...Coastal and Buoy Obs...

STATION/POSITION TIME  TEMP    WIND        PRES    VSBY  WAVE
                       AIR SEA DIR/SP/G                  HT/PER
                 (UTC) (F)     (DEG/KT/KT) (MB)    (MI)  (FT/S)
KEATON BEACH     1600   64     180/ 10/ 10 1026.5S
CEDAR KEY        1554   65      70/  3/  4 1027.1S
C TOWER          1600   60     160/  7/  8 1026.3F
APALACHICOLA BUO 1600   64 66   90/  6/  8 1026.4S         1/ 4
PANAMA CITY BUOY 1506   65 67  140/  8/ 12 1026.7          2/ 4
MOBILE BUOY      1537   70 71  160/ 14/ 16 1025.9R         3/ 5
ORANGE BCH AL BU 1600   61 63   50/  8/ 10 1025.8R         2/ 5
$$



USA.gov is the U.S. government's official web portal to all federal, state and local government web resources and services.